Location: Leeds
(51.2333°N, 0.6167°E)
Time: 08:22:56
(UTC+00:00)

Daily predictions for brighter satellites

Satellite Brightness Start Highest point End
(mag) Time Altitude Azimuth Time Altitude Azimuth Time Altitude Azimuth
ATLAS 2AS CENTAUR R/B 2.9 20:18:17 10° SW 20:25:41 83° SE 20:32:47 10° NE
SPOT 3 Rocket 4.3 20:24:58 10° SE 20:29:43 39° ENE 20:34:29 10° N
Cosmos 1782 2.8 20:26:31 10° SSW 20:30:20 83° W 20:34:10 10° N
IRS-1A Rocket 4.4 20:26:48 10° SSE 20:32:27 74° ENE 20:38:00 10° NNW
Cosmos 1943 Rocket 3.1 20:28:06 10° NW 20:33:30 47° WSW 20:38:52 10° S
Cosmos 1420 Rocket 4.1 20:29:15 10° NNW 20:34:36 79° ENE 20:39:55 10° SSE
USA 281 3.7 20:28:23 10° SE 20:34:43 52° NE 20:41:05 10° NNW
Cosmos 1743 3.3 20:34:31 10° N 20:37:55 36° ENE 20:41:16 10° SE
Cosmos 2278 Rocket 4.0 20:33:21 10° NW 20:38:05 28° WSW 20:42:47 10° SSW
NOSS 3-1 (A) 4.3 20:31:48 10° NW 20:38:57 72° SW 20:47:40 10° SSE
ISS -3.7 20:35:42 10° W 20:39:03 81° N 20:42:23 10° E
Cosmos 972 4.3 20:35:51 10° S 20:40:42 71° ESE 20:45:40 10° NNE
USA 245 2.2 20:42:40 10° SSE 20:44:49 49° ENE 20:47:00 10° N
Cosmos 2297 3.8 20:39:54 10° NNW 20:45:41 74° ENE 20:51:24 10° SE
Cosmos 1634 Rocket 4.3 20:40:04 10° N 20:46:17 56° ENE 20:52:24 10° SSE
USA 290 2.8 20:46:59 10° NNW 20:50:09 54° WSW 20:53:17 10° S
Cosmos 2112 Rocket 4.2 20:45:00 10° S 20:50:09 53° ESE 20:55:19 10° NNE
Cosmos 1766 Rocket 3.7 20:46:39 10° N 20:51:04 61° ENE 20:55:28 10° SSE
Okean-O 3.7 20:48:12 10° S 20:52:24 43° W 20:56:39 10° NNW
USA 229 DEB 4.1 20:46:36 10° NW 20:53:53 74° NE 21:01:46 10° SE
USA 229 4.1 20:46:42 10° NW 20:53:59 74° NE 21:01:53 10° SE
Cosmos 2034 Rocket 4.2 20:49:06 10° NNW 20:55:17 76° W 21:01:32 10° S
Cosmos 1726 3.3 20:53:50 10° NNE 20:56:25 23° ENE 20:58:35 12° ESE
Cosmos-2242 4.3 20:52:28 10° SW 20:56:27 41° WNW 21:00:30 10° N
Spot 2 Rocket 3.5 20:54:14 10° SSE 20:59:14 73° ENE 21:04:17 10° NNW
Cosmos 1680 Rocket 3.5 20:55:06 10° SSW 21:00:22 74° ESE 21:05:39 10° NNE
USA 32 4.1 21:01:59 10° S 21:07:08 65° E 21:12:19 10° NNE
Tsikada Rocket 4.0 21:03:24 10° S 21:09:33 79° E 21:15:50 10° NNE
CZ-4C R/B 4.3 21:06:40 10° N 21:10:12 47° WNW 21:13:53 10° SW
USA 276 1.7 21:12:04 10° W 21:14:11 40° SSW 21:15:14 23° SE
MetOp-A 4.2 21:11:24 14° SE 21:14:59 50° ENE 21:19:37 10° N
Cosmos 2263 4.3 21:09:29 10° NNW 21:15:10 72° ENE 21:20:00 15° SE
SL-16 R/B 2.2 21:10:04 10° SSW 21:15:43 78° ESE 21:21:26 10° NNE
Cosmos 2056 Rocket 4.0 21:13:08 10° NNW 21:18:28 59° WSW 21:23:28 11° S
MOS 1 Rocket 3.5 21:13:56 13° SSE 21:18:29 80° ENE 21:23:47 10° NNW
Lacrosse 5 3.0 21:14:37 10° WNW 21:19:12 34° SW 21:23:08 13° SSE
Cosmos 1536 3.5 21:16:02 10° N 21:19:40 37° ENE 21:22:15 17° SE
Cosmos 1624 Rocket 4.5 21:15:43 10° NNW 21:20:48 57° WSW 21:25:35 11° S
Lacrosse 5 rocket 1.3 21:16:59 10° WSW 21:21:17 88° SSE 21:25:31 10° ENE
Ariane Rocket 3.1 21:16:49 11° S 21:21:41 77° WSW 21:26:47 10° NNW
Cosmos 1452 Rocket 3.9 21:17:28 10° NNW 21:22:39 55° ENE 21:26:45 16° SE
Cosmos 1408 Rocket 4.2 21:18:47 10° N 21:23:04 44° ENE 21:26:12 17° SE
Cosmos 44 3.8 21:18:25 10° NW 21:23:07 47° WSW 21:26:45 15° SSE
Spot 1 4.3 21:20:28 10° NNE 21:24:24 46° E 21:27:37 15° S
Cosmos 1340 4.3 21:24:30 10° NNE 21:26:58 18° ENE 21:28:49 13° ESE
Cosmos 2369 Rocket 2.3 21:22:15 10° NNW 21:27:51 76° WSW 21:32:23 16° SSE
Okean 1 4.5 21:25:59 17° SE 21:27:53 26° E 21:31:07 10° NNE
Cosmos 2221 2.9 21:24:00 10° SSW 21:28:18 67° WNW 21:32:37 10° N
Cosmos 2084 3.8 21:27:52 10° NW 21:31:28 44° SW 21:33:53 19° SSE
FALCON 9 R/B 4.5 21:29:04 10° SW 21:35:07 30° SSE 21:51:09 10° ESE
USA 306 2.9 21:37:23 10° WNW 21:41:12 66° NNE 21:45:05 10° E
Cosmos 2237 Rocket 4.3 21:38:05 10° WSW 21:43:08 31° NW 21:48:12 10° NNE
Cosmos 921 Rocket 3.1 21:38:47 10° SSW 21:43:16 86° WNW 21:47:47 10° NNE
Okean 3 Rocket 3.7 21:40:22 10° NNW 21:44:46 71° W 21:48:05 17° S
GEOS 3 Rocket 3.5 21:41:10 10° NE 21:46:24 83° SE 21:51:32 10° SW
ATLAS 3B R/B 4.0 21:43:46 10° NW 21:50:44 36° WSW 21:57:02 12° S
Landsat 5 3.1 21:48:20 10° NNE 21:52:08 82° ESE 21:54:55 17° SSW
SL-8 R/B 4.4 21:50:06 10° SSW 21:54:12 29° SSE 21:58:19 10° E
Cosmos 1500 Rocket 3.6 21:51:09 10° N 21:55:28 67° ENE 21:57:58 24° SSE
Terra 3.2 21:52:51 10° SSW 21:57:06 33° W 22:01:22 10° NNW
Cosmos 1733 3.4 21:55:10 10° N 21:58:36 49° ENE 22:00:07 28° SE
Cosmos 1943 3.3 21:53:57 12° S 21:59:06 58° ESE 22:04:40 10° NE
ALOS 2 4.5 21:58:50 12° ESE 22:01:41 21° ENE 22:04:55 10° NNE
USA 234 3.8 21:55:32 10° E 22:01:58 61° NNE 22:08:23 10° WNW
Cosmos 1048 Rocket 3.9 21:59:01 13° SSW 22:03:34 71° ESE 22:08:41 10° NNE
Cosmos 1805 Rocket 3.6 22:00:02 10° N 22:04:24 69° ENE 22:06:48 26° SSE
H-2A R/B 3.5 22:02:30 20° ESE 22:04:44 35° ENE 22:08:35 10° N
Cosmos 1842 Rocket 3.9 22:01:41 12° SSW 22:05:44 65° WNW 22:10:09 10° N
Lacrosse 4 Rocket 3.5 22:03:32 10° NNW 22:06:40 21° NE 22:09:49 10° E
Cosmos 494 Rocket 4.0 22:01:39 10° SSW 22:06:46 83° WNW 22:11:55 10° NNE
Meteor 1-10 Rocket 4.2 22:02:23 15° S 22:07:19 87° ESE 22:13:01 10° NNE
Cosmos 1151 Rocket 3.7 22:08:37 26° SE 22:10:29 39° E 22:14:33 10° NNE
Meteor 2-9 Rocket 4.3 22:05:15 10° NNW 22:11:05 88° ENE 22:14:56 23° SSE
Cosmos 1302 Rocket 4.2 22:08:54 10° NNW 22:14:04 62° ENE 22:17:13 23° SE
Meteor 1-11 Rocket 3.9 22:08:44 10° NNW 22:14:20 71° W 22:18:13 21° S
ISS -3.6 22:12:23 10° W 22:15:39 54° SSW 22:16:32 39° SSE
Cosmos 1633 Rocket 4.3 22:12:01 10° N 22:15:56 30° ENE 22:18:08 20° ESE
Meteor 2-10 4.2 22:10:36 10° NNW 22:16:17 87° WSW 22:19:41 24° S
ATLAS 2AS CENTAUR R/B 4.2 22:10:28 10° W 22:17:17 41° NNW 22:23:50 10° NE
Meteor 1-19 Rocket 4.3 22:14:06 21° S 22:18:11 69° E 22:23:57 10° NNE
ARIANE 5 R/B 2.6 22:16:04 28° SSE 22:18:19 70° ENE 22:22:38 10° N
Cosmos 1340 Rocket 3.1 22:17:22 31° SSE 22:18:57 51° E 22:22:52 10° NNE
USA 281 4.0 22:14:24 16° S 22:19:20 42° WSW 22:25:35 10° NW
USA 59 Rocket 0.7 22:15:56 10° NW 22:19:26 46° NE 22:22:59 16° ESE
Cosmos 1331 Rocket 4.2 22:14:58 10° NNW 22:20:11 63° WSW 22:23:13 25° S
NOSS 2-1 (E) 4.2 22:16:47 10° NW 22:20:18 47° NE 22:23:50 16° ESE
MINOTAUR 4 R/B 3.9 22:19:00 10° NNE 22:21:55 48° ESE 22:22:22 43° SE
Cosmos 1110 Rocket 4.4 22:16:52 10° NNW 22:22:05 57° WSW 22:25:12 24° S
BREEZE-M DEB (TANK) 4.3 22:18:47 10° WSW 22:22:49 73° SSE 22:40:40 10° E
H-2A R/B 4.4 22:24:10 10° ENE 22:24:45 10° E 22:25:19 10° E
CZ-2C R/B 3.8 22:20:41 10° NNE 22:25:13 60° ESE 22:27:22 29° S
Cosmos 1726 3.7 22:27:02 10° NW 22:29:35 23° W 22:31:07 16° SW
NOSS 2-1 (D) 3.8 22:28:22 10° NW 22:31:57 59° NE 22:34:55 21° ESE
Nadezhda 4 Rocket 3.9 22:30:38 21° S 22:34:56 88° E 22:41:14 10° N
Cosmos 1805 3.0 22:35:12 10° N 22:38:56 78° E 22:40:09 40° SSE
IRIDIUM 106 4.3 22:36:48 10° N 22:42:04 80° E 22:44:45 30° S
Cosmos 1743 Rocket 4.1 22:41:32 10° NNW 22:45:48 51° W 22:47:56 27° SSW
Sich 1 3.9 22:46:19 10° NNW 22:50:27 42° W 22:52:35 24° SSW
Spot 2 4.4 22:50:57 31° SE 22:53:03 66° ENE 22:57:51 10° N
Cosmos 1975 2.7 22:51:54 10° N 22:55:52 88° W 22:57:09 42° S
Lacrosse 5 rocket 2.8 22:55:57 10° W 22:59:59 40° N 23:03:55 10° ENE
SL-16 R/B 4.3 22:55:41 10° W 23:00:27 27° NW 23:05:16 10° NNE
Cosmos 1340 3.5 22:58:13 10° NNW 23:01:22 35° W 23:02:14 30° SW
Cosmos 1603 3.8 22:57:29 16° SW 23:02:08 79° WNW 23:07:53 10° NNE
Cosmos 1626 2.0 23:04:41 49° ESE 23:04:58 51° E 23:08:08 10° NNE
PSLV R/B 4.1 23:02:31 10° N 23:06:35 68° WNW 23:08:26 31° SSW
NOSS 2-1 (C) 3.4 23:03:28 10° NW 23:07:11 79° SW 23:09:08 34° SE
USA 267 3.5 23:00:58 10° ENE 23:07:11 44° SE 23:10:42 25° SSW
Cosmos 1674 4.0 23:07:50 22° E 23:08:12 22° E 23:10:59 10° NE
Meteor 1-27 Rocket 4.3 23:04:40 16° SW 23:08:52 50° WNW 23:14:16 10° N
Cosmos 1627 Rocket 4.5 23:05:12 27° S 23:08:53 84° E 23:15:13 10° N
Cosmos 2369 Rocket 4.3 23:08:09 10° WNW 23:10:55 14° W 23:13:41 10° SW
USA 306 2.8 23:11:11 10° WNW 23:14:58 49° SSW 23:15:15 47° SSW
Cosmos 2026 Rocket 4.0 23:12:22 27° S 23:16:05 87° W 23:22:24 10° N
Cosmos 1833 Rocket 4.0 23:17:10 21° SE 23:18:45 24° ESE 23:23:08 10° NE
NOSS 3-3 (C) 4.5 23:26:06 30° SSE 23:27:42 35° ESE 23:33:21 10° NE
Cosmos 220 Rocket 3.9 23:30:06 42° S 23:31:30 78° ESE 23:35:52 10° NNE
Cosmos 1515 Rocket 3.8 23:31:37 39° SSE 23:32:53 55° E 23:37:08 10° NNE
GP-B 4.4 23:30:19 10° NNE 23:34:12 29° E 23:35:54 22° ESE
Cosmos 1328 Rocket 3.6 23:33:10 37° SSW 23:34:49 71° WNW 23:39:10 10° N
SL-8 R/B 3.6 23:31:27 10° WSW 23:36:08 58° S 23:40:49 10° E
Cosmos 1553 Rocket 3.9 23:30:29 10° N 23:36:36 86° W 23:39:39 32° S
Meteor 1-18 Rocket 4.4 23:33:57 28° SSW 23:37:13 77° WNW 23:43:11 10° N
ALOS 2 2.8 23:36:13 39° SSW 23:37:38 59° W 23:42:00 10° NNW
Spot 4 4.5 23:37:28 31° SSW 23:39:13 44° W 23:43:48 10° NNW
H-2A R/B 3.8 23:38:30 24° SW 23:39:44 28° W 23:43:24 10° NW
Cosmos 1470 Rocket 3.6 23:35:51 10° NNW 23:40:19 70° W 23:41:47 41° SSW
Cosmos 1869 Rocket 4.4 23:36:59 10° N 23:41:07 41° ENE 23:42:59 26° SE
USA 234 3.2 23:38:50 13° SE 23:44:54 78° SSW 23:51:30 10° WNW
Lacrosse 4 Rocket 1.2 23:41:20 10° NW 23:45:24 75° WSW 23:46:29 47° SSE
Meteor 2-4 Rocket 4.3 23:42:30 23° SW 23:46:05 57° WNW 23:51:58 10° N
NOSS 8 (A) 4.2 23:46:21 57° SW 23:46:59 85° SE 23:50:04 10° NE
Cosmos 1633 Rocket 4.1 23:49:41 10° NNW 23:53:41 34° W 23:55:08 27° SW
